Retour au catalogue

COSMOS 2535 DEB

LostPO
NORAD 45001·DEBRIS·🇷🇺 Russia

Lancé Jul 10, 2019 depuis Plesetsk Cosmodrome

Loading…

Prochains Passages (prochaines 24 heures)

TLE

PériméSource: Space-Track

Époque: Jan 14, 2020, 09:02 UTC

1 45001U 19039S   20014.37681808 -.00287314  00000-0 -75713-1 0  9991
2 45001  97.0479  68.2233 0259038 316.8076  41.3049 14.32392761   481

Suivez COSMOS 2535 DEB en temps réel avec AllMySat

Download on the App Store